This is the latest recevied weather packets stored in our database for station/object NE1CU. If no packets are shown the sender has not sent any weather packets the latest 10 day(s).
| Time | Temp. | Humidity | Pressure | Rain* | Wind** | Luminosity | Snow |
|---|---|---|---|---|---|---|---|
| 1778088242 | 15° C | 86% | 1008.9 hPa | 1.78 mm | - | 165 W/m² | - |
| 1778087939 | 15° C | 85% | 1008.9 hPa | 0 mm | - | 134 W/m² | - |
| 1778087637 | 15.56° C | 84% | 1009 hPa | 0 mm | - | 132 W/m² | - |
| 1778087335 | 15.56° C | 83% | 1009.2 hPa | 0 mm | - | 116 W/m² | - |
| 1778087030 | 15.56° C | 83% | 1009.3 hPa | 0 mm | - | 128 W/m² | - |
| 1778086729 | 15.56° C | 83% | 1009.1 hPa | 0 mm | - | 128 W/m² | - |
| 1778086427 | 15.56° C | 82% | 1009.4 hPa | 0 mm | - | 94 W/m² | - |
| 1778086123 | 15.56° C | 81% | 1009.4 hPa | 0 mm | - | 96 W/m² | - |
| 1778085820 | 15.56° C | 82% | 1009.6 hPa | 0 mm | - | 152 W/m² | - |
| 1778085518 | 15.56° C | 82% | 1009.5 hPa | 0 mm | - | 158 W/m² | - |
| 1778085211 | 15.56° C | 81% | 1009.5 hPa | 0 mm | - | 120 W/m² | - |
| 1778084907 | 16.11° C | 80% | 1009.7 hPa | 0 mm | - | 105 W/m² | - |
| 1778084606 | 16.11° C | 80% | 1009.7 hPa | 0 mm | - | 86 W/m² | - |
| 1778084303 | 16.11° C | 79% | 1009.6 hPa | 0 mm | - | 101 W/m² | - |
| 1778084000 | 16.11° C | 78% | 1009.5 hPa | 0 mm | - | 114 W/m² | - |
| 1778083698 | 16.11° C | 78% | 1009.7 hPa | 0 mm | - | 114 W/m² | - |
| 1778083394 | 16.11° C | 78% | 1009.8 hPa | 0 mm | - | 95 W/m² | - |
| 1778083093 | 16.11° C | 77% | 1009.7 hPa | 0 mm | - | 78 W/m² | - |
| 1778082790 | 16.67° C | 76% | 1009.8 hPa | 0 mm | - | 97 W/m² | - |
| 1778081662 | 17.22° C | 74% | 1009.9 hPa | 0 mm | - | 159 W/m² | - |
| 1778081359 | 17.22° C | 75% | 1009.9 hPa | 0 mm | - | 374 W/m² | - |
| 1778081056 | 17.22° C | 74% | 1010.2 hPa | 0 mm | - | 295 W/m² | - |
| 1778080755 | 16.67° C | 76% | 1010 hPa | 0 mm | - | 258 W/m² | - |
| 1778080451 | 16.67° C | 75% | 1009.9 hPa | 0 mm | - | 258 W/m² | - |
| 1778080149 | 16.67° C | 75% | 1009.7 hPa | 0 mm | - | 226 W/m² | - |
* Rain latest hour (hover to see other rain measurements)
** Current wind speed in m/s (hover to see current wind gust speed)